FW2347 Weather Reports


Display with metric or nautical units.
time (UTC)temp
F
wind
direction
speed
MPH
gust
MPH
rain 1hr
in
rain 24hr
in
rain mn
in
humidity
%
barometer
mb
20260507004602 46 234 0.0 0.0 0.00 0.00 0.00 30 1012.9
20260507003101 46 233 0.0 0.0 0.00 0.00 0.00 32 1013.0
20260507001608 46 233 0.0 0.0 0.00 0.00 0.00 36 1013.2
20260507000107 47 234 0.0 0.0 0.00 0.00 0.00 39 1013.2
20260506234515 47 234 0.0 0.0 0.00 0.00 0.00 42 1013.2
20260506233023 48 234 0.0 0.0 0.00 0.00 0.00 46 1013.2
20260506231540 48 234 0.0 0.0 0.00 0.00 0.00 51 1013.1
20260506230002 49 234 0.0 0.0 0.00 0.00 0.00 53 1013.0
20260506224517 50 233 0.0 0.0 0.00 0.00 0.00 57 1013.1
20260506223040 50 233 0.0 0.0 0.00 0.00 0.00 60 1013.0
20260506221542 50 234 0.0 0.0 0.00 0.00 0.00 63 1012.9
20260506220101 50 233 0.0 0.0 0.00 0.00 0.00 66 1012.8
20260506214514 51 233 0.0 0.0 0.00 0.00 0.00 69 1012.8
20260506213029 51 233 0.0 0.0 0.00 0.00 0.00 70 1012.6
20260506211535 51 234 0.0 0.0 0.00 0.00 0.00 72 1012.6
20260506210110 51 233 0.0 0.0 0.00 0.00 0.00 73 1012.5
20260506204603 52 234 0.0 0.0 0.00 0.00 0.00 73 1012.3
20260506203108 54 233 0.0 0.0 0.00 0.00 0.00 72 1012.0
20260506201512 56 234 0.0 0.0 0.00 0.00 0.00 70 1011.6
20260506200019 57 233 0.0 0.0 0.00 0.00 0.00 68 1011.4
20260506194542 57 272 0.0 0.0 0.00 0.00 0.00 68 1011.2
20260506193036 57 240 0.0 0.0 0.00 0.00 0.00 67 1010.8
20260506191601 57 250 0.0 0.0 0.00 0.00 0.00 64 1010.5
20260506190044 58 313 0.0 0.0 0.00 0.00 0.00 62 1010.3
20260506184611 60 313 0.0 0.0 0.00 0.00 0.00 57 1010.1
20260506183107 61 313 0.0 0.0 0.00 0.00 0.00 53 1009.8
20260506181608 63 313 0.0 0.0 0.00 0.00 0.00 51 1009.6
20260506180110 64 345 0.0 0.0 0.00 0.00 0.00 50 1009.5
20260506174604 64 313 0.0 0.0 0.00 0.00 0.00 50 1009.3
20260506173116 64 305 0.0 0.0 0.00 0.00 0.00 49 1009.2
20260506171534 65 293 0.0 0.0 0.00 0.00 0.00 49 1009.1
20260506170044 66 349 0.0 0.0 0.00 0.00 0.00 48 1009.0
20260506164550 66 320 0.0 0.0 0.00 0.00 0.00 50 1009.0
20260506163052 66 350 0.0 0.0 0.00 0.00 0.00 51 1009.1
20260506161557 65 339 0.0 0.0 0.00 0.00 0.00 51 1009.0
20260506160104 66 55 0.0 0.0 0.00 0.00 0.00 50 1009.1
20260506154505 66 279 0.0 0.0 0.00 0.00 0.00 50 1009.1
20260506153012 66 319 0.0 0.0 0.00 0.00 0.00 50 1009.2
20260506151533 66 346 0.0 0.0 0.00 0.00 0.00 51 1009.2
20260506150028 66 317 0.0 0.0 0.00 0.00 0.00 51 1009.3
20260506144539 66 13 0.0 0.0 0.00 0.00 0.00 51 1009.3
20260506143047 66 309 0.0 0.0 0.00 0.00 0.00 52 1009.4
20260506141558 66 274 0.0 0.0 0.00 0.00 0.00 51 1009.9
20260506140010 65 309 0.0 0.0 0.00 0.00 0.00 51 1009.9
20260506134545 66 321 0.0 0.0 0.00 0.00 0.00 51 1010.1
20260506133056 65 291 0.0 0.0 0.00 0.00 0.00 52 1010.1
20260506131514 65 317 0.0 0.0 0.00 0.00 0.00 54 1010.2
20260506130015 65 296 0.0 0.0 0.00 0.00 0.00 54 1010.3
20260506124532 64 259 0.0 0.0 0.00 0.00 0.00 53 1010.4
20260506123051 65 14 0.0 0.0 0.00 0.00 0.00 54 1010.5
20260506121512 64 350 0.0 0.0 0.00 0.00 0.00 58 1010.4
20260506120024 63 292 0.0 0.0 0.00 0.00 0.00 60 1010.5
20260506114549 63 255 0.0 0.0 0.00 0.00 0.00 65 1010.5
20260506113048 62 211 0.0 0.0 0.00 0.00 0.00 69 1010.6
20260506111509 60 229 0.0 0.0 0.00 0.00 0.00 71 1010.9
20260506110049 61 222 0.0 0.0 0.00 0.00 0.00 71 1011.1
20260506104615 60 284 0.0 0.0 0.00 0.00 0.00 72 1011.1
20260506103106 60 336 0.0 0.0 0.00 0.00 0.00 72 1011.3
20260506101518 59 268 0.0 0.0 0.00 0.00 0.00 72 1011.4
20260506100011 58 269 0.0 0.0 0.00 0.00 0.00 72 1011.6
20260506094552 57 313 0.0 0.0 0.00 0.00 0.00 71 1011.8
20260506093104 56 281 0.0 0.0 0.00 0.00 0.00 67 1011.8
20260506091502 55 209 0.0 0.0 0.00 0.00 0.00 59 1011.8
20260506090001 55 250 0.0 0.0 0.00 0.00 0.00 47 1011.7
20260506084521 53 246 0.0 0.0 0.00 0.00 0.00 34 1011.8
20260506083026 51 234 0.0 0.0 0.00 0.00 0.00 30 1011.7
20260506081540 51 273 0.0 0.0 0.00 0.00 0.00 26 1011.6
20260506073019 50 278 0.0 0.0 0.00 0.00 0.00 13 1011.7
20260506071555 49 272 0.0 0.0 0.00 0.00 0.00 11 1011.6
20260506061522 47 245 0.0 0.0 0.00 0.00 0.00 3 1011.4
20260506050113 43 231 0.0 0.0 0.00 0.00 0.00 6 1010.7
20260506044608 41 231 0.0 0.0 0.00 0.00 0.00 7 1010.4
20260506043004 41 231 0.0 0.0 0.00 0.00 0.00 8 1010.3
20260506041529 41 230 0.0 0.0 0.00 0.00 0.00 8 1010.3
20260506040039 41 231 0.0 0.0 0.00 0.00 0.00 9 1010.4
20260506034546 40 230 0.0 0.0 0.00 0.00 0.00 9 1010.3
20260506033051 41 231 0.0 0.0 0.00 0.00 0.00 9 1010.2
20260506031607 40 231 0.0 0.0 0.00 0.00 0.00 10 1010.1
20260506030008 40 231 0.0 0.0 0.00 0.00 0.00 10 1010.2
20260506024509 41 231 0.0 0.0 0.00 0.00 0.00 10 1010.1
20260506023033 41 230 0.0 0.0 0.00 0.00 0.00 11 1010.1
20260506021548 42 231 0.0 0.0 0.00 0.00 0.00 11 1010.1
20260506020100 41 230 0.0 0.0 0.00 0.00 0.00 11 1010.0
20260506014507 41 231 0.0 0.0 0.00 0.01 0.00 12 1010.0
20260506013022 41 231 0.0 0.0 0.00 0.01 0.00 12 1010.0
20260506011507 42 231 0.0 0.0 0.00 0.01 0.00 12 1010.0